Time,TemperatureF,DewpointF,PressureIn,WindDirection,WindDirectionDegrees,WindSpeedMPH,WindSpeedGustMPH,Humidity,HourlyPrecipIn,Conditions,Clouds,dailyrainin,SoftwareType,DateUTC
2013-12-20 00:12:00,54.0,49.0,29.94,SSE,158,1.0,10.0,84,0.00,,,0.00,,2013-12-20 06:12:00,
2013-12-20 00:22:00,54.0,49.0,29.93,South,169,0.0,7.0,83,0.00,,,0.00,,2013-12-20 06:22:00,
2013-12-20 00:43:00,55.0,50.0,29.93,SSE,165,6.0,10.0,83,0.00,,,0.00,,2013-12-20 06:43:00,
2013-12-20 00:52:00,55.0,50.0,29.93,SSE,167,5.0,12.0,82,0.00,,,0.00,,2013-12-20 06:52:00,
2013-12-20 01:22:00,55.0,50.0,29.93,South,173,6.0,15.0,82,0.00,,,0.00,,2013-12-20 07:22:00,
2013-12-20 01:42:00,55.0,50.0,29.92,SSW,200,5.0,12.0,82,0.00,,,0.00,,2013-12-20 07:42:00,
2013-12-20 01:52:00,55.0,50.0,29.92,SSE,166,0.0,11.0,82,0.00,,,0.00,,2013-12-20 07:52:00,
2013-12-20 02:12:00,55.0,50.0,29.93,South,178,6.0,10.0,83,0.00,,,0.00,,2013-12-20 08:12:00,
2013-12-20 02:22:00,55.0,50.0,29.92,SSE,168,2.0,10.0,83,0.00,,,0.00,,2013-12-20 08:22:00,
2013-12-20 02:42:00,55.0,50.0,29.92,South,180,6.0,13.0,83,0.00,,,0.00,,2013-12-20 08:42:00,
2013-12-20 02:52:00,55.0,50.0,29.92,South,169,5.0,12.0,83,0.00,,,0.00,,2013-12-20 08:52:00,
2013-12-20 03:11:00,55.0,50.0,29.92,SSE,159,6.0,10.0,84,0.00,,,0.00,,2013-12-20 09:11:00,
2013-12-20 03:22:00,55.0,50.0,29.92,SSW,195,5.0,11.0,84,0.00,,,0.00,,2013-12-20 09:22:00,
2013-12-20 03:43:00,55.0,50.0,29.92,South,182,0.0,11.0,84,0.00,,,0.00,,2013-12-20 09:43:00,
2013-12-20 03:53:00,55.0,51.0,29.92,South,183,9.0,13.0,85,0.00,,,0.00,,2013-12-20 09:53:00,
2013-12-20 04:23:00,55.0,51.0,29.91,South,182,6.0,14.0,86,0.00,,,0.00,,2013-12-20 10:23:00,
2013-12-20 04:53:00,55.0,51.0,29.90,South,172,7.0,14.0,86,0.00,,,0.00,,2013-12-20 10:53:00,
2013-12-20 05:12:00,55.0,51.0,29.89,South,178,7.0,14.0,86,0.00,,,0.00,,2013-12-20 11:12:00,
2013-12-20 05:22:00,55.0,51.0,29.89,South,180,7.0,14.0,86,0.00,,,0.00,,2013-12-20 11:22:00,
2013-12-20 05:42:00,55.0,51.0,29.89,South,178,9.0,16.0,86,0.00,,,0.00,,2013-12-20 11:42:00,
2013-12-20 05:53:00,55.0,51.0,29.89,SSW,202,9.0,16.0,87,0.00,,,0.00,,2013-12-20 11:53:00,
2013-12-20 06:12:00,55.0,51.0,29.89,South,183,7.0,13.0,87,0.00,,,0.00,,2013-12-20 12:12:00,
2013-12-20 06:23:00,55.0,52.0,29.88,SE,130,8.0,13.0,88,0.00,,,0.00,,2013-12-20 12:23:00,
2013-12-20 06:42:00,55.0,52.0,29.88,South,188,8.0,16.0,88,0.00,,,0.00,,2013-12-20 12:42:00,
2013-12-20 06:52:00,55.0,52.0,29.89,South,190,7.0,13.0,89,0.00,,,0.00,,2013-12-20 12:52:00,
2013-12-20 07:11:00,55.0,52.0,29.89,SSW,192,7.0,13.0,89,0.00,,,0.00,,2013-12-20 13:11:00,
2013-12-20 07:22:00,55.0,52.0,29.89,SSW,192,7.0,13.0,89,0.00,,,0.00,,2013-12-20 13:22:00,
2013-12-20 07:42:00,54.0,51.0,29.89,SSW,200,10.0,15.0,91,0.00,,,0.00,,2013-12-20 13:42:00,
2013-12-20 07:53:00,54.0,51.0,29.90,South,169,9.0,14.0,91,0.00,,,0.00,,2013-12-20 13:53:00,
2013-12-20 08:11:00,55.0,53.0,29.90,SSE,165,9.0,14.0,92,0.00,,,0.00,,2013-12-20 14:11:00,
2013-12-20 08:22:00,55.0,53.0,29.90,South,190,8.0,14.0,92,0.00,,,0.00,,2013-12-20 14:22:00,
2013-12-20 08:42:00,54.0,52.0,29.90,SSE,160,7.0,14.0,94,0.00,,,0.00,,2013-12-20 14:42:00,
2013-12-20 08:52:00,54.0,52.0,29.90,South,171,6.0,14.0,94,0.00,,,0.00,,2013-12-20 14:52:00,
2013-12-20 09:11:00,54.0,53.0,29.90,SSW,196,8.0,14.0,95,0.00,,,0.00,,2013-12-20 15:11:00,
2013-12-20 09:22:00,55.0,54.0,29.91,South,180,8.0,15.0,95,0.00,,,0.00,,2013-12-20 15:22:00,
2013-12-20 09:44:00,55.0,53.0,29.91,South,180,7.0,13.0,94,0.00,,,0.00,,2013-12-20 15:44:00,
2013-12-20 09:54:00,55.0,53.0,29.91,South,177,8.0,13.0,94,0.00,,,0.00,,2013-12-20 15:54:00,
2013-12-20 10:13:00,55.0,53.0,29.90,SE,132,7.0,14.0,93,0.00,,,0.00,,2013-12-20 16:13:00,
2013-12-20 10:23:00,56.0,54.0,29.91,South,190,7.0,14.0,93,0.00,,,0.00,,2013-12-20 16:23:00,
2013-12-20 10:43:00,56.0,54.0,29.90,South,174,9.0,17.0,93,0.00,,,0.00,,2013-12-20 16:43:00,
2013-12-20 10:53:00,57.0,55.0,29.90,South,183,8.0,13.0,93,0.00,,,0.00,,2013-12-20 16:53:00,
2013-12-20 11:12:00,57.0,55.0,29.90,SSW,196,8.0,18.0,92,0.00,,,0.00,,2013-12-20 17:12:00,
2013-12-20 11:22:00,57.0,55.0,29.89,SSE,157,7.0,16.0,92,0.00,,,0.00,,2013-12-20 17:22:00,
2013-12-20 11:42:00,57.0,55.0,29.89,South,175,8.0,14.0,93,0.00,,,0.00,,2013-12-20 17:42:00,
2013-12-20 11:52:00,57.0,55.0,29.88,South,171,7.0,14.0,93,0.00,,,0.00,,2013-12-20 17:52:00,
2013-12-20 12:12:00,57.0,55.0,29.87,South,190,0.0,0.0,93,0.00,,,0.00,,2013-12-20 18:12:00,
2013-12-20 12:22:00,58.0,56.0,29.87,SSE,165,0.0,9.0,93,0.00,,,0.00,,2013-12-20 18:22:00,
2013-12-20 12:42:00,59.0,57.0,29.86,South,171,5.0,9.0,94,0.00,,,0.00,,2013-12-20 18:42:00,
2013-12-20 12:52:00,61.0,59.0,29.86,SSW,212,10.0,19.0,93,0.00,,,0.00,,2013-12-20 18:52:00,
2013-12-20 13:12:00,62.0,58.0,29.85,SSW,194,11.0,18.0,88,0.00,,,0.00,,2013-12-20 19:12:00,
2013-12-20 13:22:00,62.0,58.0,29.85,SSW,194,10.0,16.0,88,0.00,,,0.00,,2013-12-20 19:22:00,
2013-12-20 13:42:00,63.0,59.0,29.84,SSW,194,9.0,17.0,88,0.00,,,0.00,,2013-12-20 19:42:00,
2013-12-20 13:52:00,62.0,58.0,29.84,SSW,208,10.0,15.0,88,0.00,,,0.00,,2013-12-20 19:52:00,
2013-12-20 14:11:00,62.0,58.0,29.84,SW,215,9.0,16.0,88,0.00,,,0.00,,2013-12-20 20:11:00,
2013-12-20 14:22:00,62.0,59.0,29.84,SSW,193,10.0,14.0,89,0.00,,,0.00,,2013-12-20 20:22:00,
2013-12-20 14:42:00,62.0,59.0,29.83,SSW,195,8.0,13.0,90,0.00,,,0.00,,2013-12-20 20:42:00,
2013-12-20 14:52:00,61.0,58.0,29.84,SSW,207,6.0,10.0,91,0.00,,,0.00,,2013-12-20 20:52:00,
2013-12-20 15:22:00,61.0,59.0,29.84,South,190,0.0,11.0,92,0.00,,,0.00,,2013-12-20 21:22:00,
2013-12-20 15:43:00,61.0,59.0,29.85,South,190,6.0,13.0,92,0.00,,,0.00,,2013-12-20 21:43:00,
2013-12-20 15:53:00,60.0,58.0,29.85,South,185,0.0,10.0,92,0.00,,,0.00,,2013-12-20 21:53:00,
2013-12-20 16:13:00,60.0,58.0,29.86,SSE,150,0.0,0.0,92,0.00,,,0.00,,2013-12-20 22:13:00,
2013-12-20 16:23:00,60.0,58.0,29.86,South,186,0.0,0.0,92,0.00,,,0.00,,2013-12-20 22:23:00,
2013-12-20 16:43:00,60.0,58.0,29.86,South,173,0.0,0.0,93,0.00,,,0.00,,2013-12-20 22:43:00,
2013-12-20 16:53:00,59.0,57.0,29.85,South,174,0.0,0.0,94,0.00,,,0.00,,2013-12-20 22:53:00,
2013-12-20 17:12:00,60.0,58.0,29.86,South,191,0.0,0.0,94,0.00,,,0.00,,2013-12-20 23:12:00,
2013-12-20 17:22:00,59.0,57.0,29.86,South,181,0.0,1.0,94,0.00,,,0.00,,2013-12-20 23:22:00,
2013-12-20 17:42:00,59.0,57.0,29.85,South,176,0.0,0.0,94,0.00,,,0.00,,2013-12-20 23:42:00,
2013-12-20 17:53:00,59.0,57.0,29.85,South,169,0.0,0.0,94,0.00,,,0.00,,2013-12-20 23:53:00,
2013-12-20 18:11:00,59.0,57.0,29.85,SSW,210,0.0,8.0,94,0.00,,,0.00,,2013-12-21 00:11:00,
2013-12-20 18:22:00,59.0,58.0,29.84,SSE,168,0.0,6.0,95,0.00,,,0.00,,2013-12-21 00:22:00,
2013-12-20 18:42:00,60.0,58.0,29.85,South,169,0.0,7.0,94,0.00,,,0.00,,2013-12-21 00:42:00,
2013-12-20 18:52:00,60.0,58.0,29.84,SE,136,0.0,0.0,94,0.00,,,0.00,,2013-12-21 00:52:00,
2013-12-20 19:11:00,60.0,58.0,29.84,South,182,0.0,0.0,94,0.00,,,0.00,,2013-12-21 01:11:00,
2013-12-20 19:22:00,60.0,58.0,29.85,South,180,0.0,0.0,94,0.00,,,0.00,,2013-12-21 01:22:00,
2013-12-20 19:42:00,60.0,59.0,29.85,SSW,194,0.0,0.0,95,0.00,,,0.00,,2013-12-21 01:42:00,
2013-12-20 19:52:00,60.0,59.0,29.85,South,186,0.0,0.0,95,0.00,,,0.00,,2013-12-21 01:52:00,
2013-12-20 20:12:00,60.0,59.0,29.84,South,177,0.0,5.0,95,0.00,,,0.00,,2013-12-21 02:12:00,
2013-12-20 20:21:00,60.0,59.0,29.83,South,190,5.0,9.0,95,0.00,,,0.00,,2013-12-21 02:21:00,
2013-12-20 20:32:00,60.0,59.0,29.83,South,190,5.0,9.0,95,0.00,,,0.00,,2013-12-21 02:32:00,
2013-12-20 20:42:00,60.0,59.0,29.83,South,190,5.0,9.0,95,0.00,,,0.00,,2013-12-21 02:42:00,
2013-12-20 20:52:00,60.0,59.0,29.83,South,175,5.0,11.0,95,0.01,,,0.01,,2013-12-21 02:52:00,
2013-12-20 21:11:00,60.0,59.0,29.83,South,189,6.0,14.0,95,0.01,,,0.01,,2013-12-21 03:11:00,
2013-12-20 21:22:00,56.0,54.0,29.85,WNW,288,8.0,14.0,93,0.06,,,0.06,,2013-12-21 03:22:00,
2013-12-20 21:43:00,55.0,54.0,29.86,NW,323,2.0,7.0,95,0.09,,,0.10,,2013-12-21 03:43:00,
2013-12-20 21:53:00,53.0,52.0,29.87,WNW,298,4.0,10.0,96,0.15,,,0.16,,2013-12-21 03:53:00,
2013-12-20 22:12:00,52.0,51.0,29.88,NNW,343,5.0,8.0,96,0.22,,,0.23,,2013-12-21 04:12:00,
2013-12-20 22:23:00,52.0,51.0,29.88,NNW,343,5.0,8.0,96,0.22,,,0.23,,2013-12-21 04:23:00,
2013-12-20 22:43:00,50.0,49.0,29.88,NW,322,0.0,3.0,96,0.25,,,0.36,,2013-12-21 04:43:00,
2013-12-20 22:52:00,49.0,48.0,29.88,NNW,338,0.0,0.0,97,0.26,,,0.43,,2013-12-21 04:52:00,
2013-12-20 23:12:00,49.0,48.0,29.86,ENE,61,0.0,0.0,97,0.24,,,0.48,,2013-12-21 05:12:00,
2013-12-20 23:22:00,49.0,48.0,29.87,North,355,1.0,6.0,97,0.23,,,0.49,,2013-12-21 05:22:00,
2013-12-20 23:42:00,49.0,48.0,29.88,NNW,342,0.0,2.0,97,0.11,,,0.49,,2013-12-21 05:42:00,
2013-12-20 23:52:00,48.0,47.0,29.88,NNW,337,4.0,7.0,97,0.05,,,0.49,,2013-12-21 05:52:00,